Location: Bremen
(53.0793°N, 8.8017°E)
Time: 18:02:28
(UTC+02:00)

Explorer 7 - Pass Details

Date: 20 April 2024
Orbit: 467 x 626 km, 50.3° (Epoch: 17 May)

Event Time Altitude Azimuth Distance (km) Brightness Sun altitude
Rises 17:01:28 0° 278° (W) 2,913 11.4 30.4°
Reaches altitude 10° 17:03:54 10° 271° (W) 1,994 10.9 30.0°
Maximum altitude 17:08:12 41° 202° (SSW) 894 8.8 29.4°
Drops below altitude 10° 17:12:21 10° 132° (SE) 1,922 9.4 28.9°
Sets 17:14:40 0° 125° (SE) 2,794 10.1 28.5°
